DW8248 Weather Reports


Display with metric or nautical units.
time (UTC)temp
F
wind
direction
speed
MPH
gust
MPH
rain 1hr
in
rain 24hr
in
rain mn
in
humidity
%
barometer
mb
20171218181929 76 63 3.0 7.0 0.00 0.01 0.01 80 1021.5
20171218180853 76 88 4.0 7.0 0.00 0.01 0.01 81 1021.6
20171218175900 76 83 3.0 7.0 0.00 0.01 0.01 83 1021.8
20171218174837 76 111 3.0 7.0 0.00 0.01 0.01 83 1022.0
20171218173833 76 89 3.0 7.0 0.00 0.01 0.01 83 1022.1
20171218172849 76 83 3.0 6.0 0.00 0.01 0.01 83 1022.2
20171218171821 76 74 3.0 6.0 0.00 0.01 0.01 85 1022.4
20171218170835 76 92 3.0 6.0 0.00 0.01 0.01 83 1022.5
20171218165813 76 93 2.0 6.0 0.00 0.01 0.01 82 1022.6
20171218164752 76 81 2.0 5.0 0.00 0.01 0.01 84 1022.7
20171218163722 76 99 2.0 4.0 0.00 0.01 0.01 84 1022.8
20171218162712 77 100 1.0 3.0 0.00 0.01 0.01 83 1022.9
20171218161711 77 166 0.0 3.0 0.00 0.01 0.01 81 1023.0
20171218160718 76 166 0.0 0.0 0.00 0.01 0.01 84 1023.1
20171218155642 76 166 0.0 0.0 0.00 0.01 0.01 87 1023.1
20171218154648 74 166 0.0 2.0 0.00 0.01 0.01 90 1023.2
20171218153630 74 166 1.0 3.0 0.00 0.01 0.01 92 1023.2
20171218152621 73 166 3.0 4.0 0.00 0.01 0.01 94 1023.2
20171218151630 72 166 3.0 5.0 0.00 0.01 0.01 95 1023.1
20171218150631 71 166 3.0 5.0 0.00 0.01 0.01 95 1023.1
20171218145604 71 167 2.0 4.0 0.00 0.01 0.01 96 1023.1
20171218144545 70 169 1.0 3.0 0.00 0.01 0.01 96 1023.1
20171218143549 69 169 0.0 1.0 0.00 0.01 0.01 96 1023.1
20171218142520 69 169 0.0 1.0 0.00 0.01 0.01 96 1023.0
20171218141524 69 169 0.0 3.0 0.00 0.01 0.01 97 1023.0
20171218140502 68 169 0.0 3.0 0.00 0.01 0.01 97 1022.9
20171218135515 68 169 0.0 0.0 0.00 0.01 0.01 97 1022.9
20171218134446 68 169 0.0 0.0 0.00 0.01 0.01 97 1022.7
20171218133424 67 169 0.0 1.0 0.00 0.01 0.01 97 1022.7
20171218132414 66 169 0.0 1.0 0.00 0.01 0.01 97 1022.6
20171218131404 66 169 0.0 1.0 0.00 0.01 0.01 97 1022.5
20171218130411 65 169 0.0 1.0 0.00 0.01 0.01 97 1022.5
20171218125351 65 169 1.0 3.0 0.00 0.01 0.01 97 1022.3
20171218124343 64 169 1.0 3.0 0.00 0.01 0.01 97 1022.2
20171218123339 65 163 2.0 3.0 0.00 0.01 0.01 97 1022.0
20171218122316 65 163 2.0 3.0 0.00 0.01 0.01 97 1021.9
20171218121309 65 164 1.0 4.0 0.00 0.01 0.01 97 1021.8
20171218120300 65 161 2.0 4.0 0.00 0.01 0.01 97 1021.8
20171218115233 65 161 1.0 3.0 0.00 0.01 0.01 97 1021.7
20171218114239 65 161 0.0 1.0 0.00 0.01 0.01 97 1021.6
20171218113211 65 161 0.0 1.0 0.00 0.01 0.01 97 1021.6
20171218112226 64 161 0.0 1.0 0.00 0.01 0.01 96 1021.6
20171218111223 65 161 1.0 3.0 0.00 0.01 0.01 96 1021.5
20171218110214 65 159 1.0 3.0 0.00 0.01 0.01 96 1021.3
20171218105146 66 155 1.0 2.0 0.00 0.01 0.01 96 1021.2
20171218104200 66 155 1.0 2.0 0.00 0.01 0.01 96 1021.2
20171218103123 66 155 0.0 1.0 0.00 0.01 0.01 96 1021.2
20171218102051 66 155 0.0 2.0 0.00 0.01 0.01 96 1021.2
20171218101018 66 155 0.0 2.0 0.00 0.01 0.01 96 1021.1
20171218100034 65 155 1.0 1.0 0.00 0.00 0.00 96 1021.1
20171218095049 65 155 0.0 1.0 0.00 0.00 0.00 96 1021.0
20171218094026 64 155 0.0 0.0 0.00 0.00 0.00 96 1021.1
20171218092951 64 155 0.0 1.0 0.00 0.00 0.00 96 1021.3
20171218091932 65 155 0.0 1.0 0.00 0.00 0.00 96 1021.3
20171218090944 65 155 1.0 1.0 0.00 0.00 0.00 95 1021.3
20171218085918 65 155 0.0 1.0 0.00 0.00 0.00 96 1021.5
20171218084931 65 155 0.0 0.0 0.00 0.00 0.00 95 1021.5
20171218083946 65 155 0.0 0.0 0.00 0.00 0.00 95 1021.7
20171218082944 65 155 0.0 0.0 0.00 0.00 0.00 95 1021.7
20171218082007 65 155 0.0 0.0 0.00 0.00 0.00 95 1021.7
20171218081015 65 155 0.0 0.0 0.00 0.00 0.00 95 1021.8
20171218080010 66 155 0.0 0.0 0.00 0.00 0.00 95 1022.0
20171218074935 66 155 0.0 0.0 0.00 0.00 0.00 95 1022.0
20171218073952 66 155 0.0 0.0 0.00 0.00 0.00 95 1022.0
20171218072951 66 155 0.0 0.0 0.00 0.00 0.00 95 1021.9
20171218072010 66 155 0.0 0.0 0.00 0.00 0.00 95 1021.9
20171218070957 66 155 0.0 0.0 0.00 0.00 0.00 95 1021.9
20171218065945 66 155 0.0 0.0 0.00 0.00 0.00 95 1021.8
20171218064918 66 155 0.0 0.0 0.00 0.00 0.00 95 1021.9
20171218063935 66 155 0.0 1.0 0.00 0.00 0.00 95 1021.9
20171218062952 66 155 0.0 1.0 0.00 0.00 0.00 95 1021.9
20171218061918 66 155 0.0 1.0 0.00 0.00 0.00 95 1022.0
20171218060903 66 155 0.0 1.0 0.00 0.00 0.00 95 1022.0
20171218055908 66 155 0.0 1.0 0.00 0.00 0.00 95 1022.0
20171218054917 66 155 1.0 1.0 0.00 0.00 0.00 95 1022.0
20171218053929 66 155 1.0 2.0 0.00 0.00 0.00 95 1021.9
20171218052901 66 155 0.0 2.0 0.00 0.00 0.00 95 1021.9
20171218051840 66 155 1.0 1.0 0.00 0.00 0.00 95 1022.0
20171218050818 67 155 0.0 2.0 0.00 0.00 0.00 94 1022.1
20171218045750 67 155 1.0 2.0 0.00 0.00 0.00 94 1022.0
20171218044807 67 155 1.0 2.0 0.00 0.00 0.00 94 1022.0
20171218043814 67 155 1.0 4.0 0.00 0.00 0.00 94 1022.1
20171218042738 67 154 2.0 4.0 0.00 0.00 0.00 94 1022.1
20171218041706 67 159 3.0 4.0 0.00 0.00 0.00 94 1022.2
20171218040646 67 161 2.0 4.0 0.00 0.00 0.00 94 1022.2
20171218035619 67 155 1.0 3.0 0.00 0.00 0.00 94 1022.3
20171218034554 67 157 2.0 4.0 0.00 0.00 0.00 94 1022.4
20171218033522 67 158 1.0 4.0 0.00 0.00 0.00 93 1022.3
20171218032515 67 158 1.0 2.0 0.00 0.00 0.00 93 1022.4
20171218031527 67 158 1.0 3.0 0.00 0.00 0.00 93 1022.4
20171218030517 68 150 1.0 3.0 0.00 0.00 0.00 93 1022.3
20171218025444 68 147 1.0 2.0 0.00 0.00 0.00 93 1022.5
20171218024434 68 147 1.0 2.0 0.00 0.00 0.00 93 1022.4
20171218023446 67 147 1.0 2.0 0.00 0.00 0.00 93 1022.5
20171218022419 67 148 1.0 2.0 0.00 0.00 0.00 93 1022.6
20171218021430 67 148 0.0 1.0 0.00 0.00 0.00 92 1022.6
20171218020408 67 148 0.0 1.0 0.00 0.00 0.00 92 1022.6
20171218015341 68 148 0.0 1.0 0.00 0.00 0.00 91 1022.6
20171218014354 68 148 0.0 1.0 0.00 0.00 0.00 91 1022.6
20171218013337 68 148 0.0 1.0 0.00 0.00 0.00 90 1022.5
20171218012315 69 148 1.0 2.0 0.00 0.00 0.00 88 1022.5
20171218011309 70 148 1.0 4.0 0.00 0.00 0.00 87 1022.4
20171218010259 70 146 3.0 7.0 0.00 0.00 0.00 88 1022.3
20171218005249 70 143 3.0 7.0 0.00 0.00 0.00 88 1022.1
20171218004240 70 146 3.0 7.0 0.00 0.00 0.00 89 1022.2
20171218003214 70 134 2.0 4.0 0.00 0.00 0.00 89 1022.2
20171218002229 70 138 2.0 3.0 0.00 0.00 0.00 88 1022.2
20171218001246 71 126 1.0 5.0 0.00 0.00 0.00 87 1022.3
20171218000307 71 125 1.0 5.0 0.00 0.00 0.00 86 1022.1
20171217235308 71 118 2.0 5.0 0.00 0.00 0.00 86 1022.0
20171217234320 71 132 2.0 6.0 0.00 0.00 0.00 85 1021.9
20171217233328 71 134 2.0 6.0 0.00 0.00 0.00 84 1021.8
20171217232253 71 154 3.0 5.0 0.00 0.00 0.00 84 1021.6
20171217231248 71 149 2.0 4.0 0.00 0.00 0.00 85 1021.4
20171217230250 71 136 2.0 4.0 0.00 0.00 0.00 86 1021.3
20171217225221 71 130 1.0 3.0 0.00 0.00 0.00 87 1021.2
20171217224239 71 132 1.0 3.0 0.00 0.00 0.00 87 1021.2
20171217223223 71 128 1.0 4.0 0.00 0.00 0.00 87 1021.2
20171217222209 72 115 2.0 4.0 0.00 0.00 0.00 86 1021.2
20171217221207 72 121 2.0 3.0 0.00 0.00 0.00 85 1021.2
20171217220149 72 121 1.0 3.0 0.00 0.00 0.00 85 1021.1
20171217215205 73 105 1.0 3.0 0.00 0.00 0.00 84 1021.2
20171217214146 73 105 1.0 5.0 0.00 0.00 0.00 82 1021.2
20171217213208 73 103 2.0 5.0 0.00 0.00 0.00 81 1021.2
20171217212230 74 130 2.0 7.0 0.00 0.00 0.00 80 1021.1
20171217211247 74 125 3.0 7.0 0.00 0.00 0.00 79 1021.0
20171217210241 74 114 3.0 8.0 0.00 0.00 0.00 78 1020.9
20171217205210 74 122 3.0 9.0 0.00 0.00 0.00 78 1020.8
20171217204139 74 136 5.0 10.0 0.00 0.00 0.00 76 1020.7
20171217203145 74 154 5.0 10.0 0.00 0.00 0.00 75 1020.7
20171217202127 75 132 5.0 10.0 0.00 0.00 0.00 75 1020.8
20171217201141 75 142 5.0 10.0 0.00 0.00 0.00 76 1020.9
20171217200204 75 132 5.0 10.0 0.00 0.00 0.00 75 1020.8
20171217195202 75 107 5.0 8.0 0.00 0.00 0.00 75 1020.9
20171217194210 75 138 4.0 9.0 0.00 0.00 0.00 76 1020.9
20171217193154 74 128 5.0 9.0 0.00 0.00 0.00 76 1021.0
20171217192133 74 128 3.0 10.0 0.00 0.00 0.00 77 1021.1
20171217191100 74 130 4.0 10.0 0.00 0.00 0.00 76 1021.2
20171217190042 75 121 4.0 9.0 0.00 0.00 0.00 75 1021.3
20171217185028 75 126 4.0 8.0 0.00 0.00 0.00 75 1021.4
20171217184044 75 152 3.0 8.0 0.00 0.00 0.00 75 1021.5
20171217183047 75 84 5.0 9.0 0.00 0.00 0.00 74 1021.5